Weather in Buyukorhan

Turkey     39°46′23″N   28°53′07″E
temp.,
°C
wind,
m/s
gust,
m/s
humid.,
%
clouds,
%
prec.,
mm/h
press.,
hPa
HPBL,
m
13 june, sun
sun1300:00+13s11957 0.1 101512
03:00+13ese119214 0.1 101510
06:00+12ese11905 0.0 101410
09:00+18wsw11635 0.0 1014547
12:00+21wsw234513 0.0 10131823
15:00+20nw565662 0.1 1012934
18:00+20nw565737 0.1 1011519
21:00+16nw35793 1.2 1012132
14 june, mon
mon1400:00+14nw269697 0.4 1013444
03:00+12nw119591 0.4 101325
06:00+12nnw1194100 0.0 101249
09:00+15nw2277100 0.3 1011653
12:00+11nw4690100 3.4 1012428
15:00+11nw2388100 4.7 1013337
18:00+13wsw017661 0.4 1012636
21:00+12sse118573 0.6 101232
15 june, tue
tue1500:00+10nw118951 0.1 101321
03:00+9nnw119338 0.1 101336
06:00+8n119411 0.0 101415
09:00+13nnw227080 0.0 1013657
12:00+16nw2251100 0.0 10121596
15:00+18nnw435198 0.5 10111443
18:00+16nw666480 0.1 10111097
21:00+11nw22863 0.2 101332
16 june, wed
wed1600:00+10wnw119498 0.0 101410
03:00+10sw119376 0.0 101310
06:00+10sw119084 0.0 101365
09:00+11sw1289100 0.4 1013240
12:00+11sw2391100 1.3 1014395
15:00+12wsw2392100 2.7 1015345
18:00+12sw129198 0.2 1016359
21:00+12sw019493 0.2 101720
17 june, thu
thu1700:00+12sw119646 0.0 101712
03:00+11s119772 0.0 101818
06:00+11s11965 0.0 101813
09:00+16ssw11751 0.0 1018470
12:00+21wnw345150 0.0 10171613
15:00+22nw3453100 0.1 1017895
18:00+22nw345382 0.0 1017898
21:00+17n11740 0.0 101711